Regional Weather Roundup
Issued by NWS Upton, NY

Current Version | Previous Version | Graphics & Text | Print | Product List | Glossary Off
Versions: 1 2 3 4 5 6 7 8 9 10 11 12 13 14 15 16 17 18 19 20 21 22 23 24 25 26 27

000
ASUS41 KOKX 051708
RWROKX

REGIONAL WEATHER ROUNDUP
NATIONAL WEATHER SERVICE NEW YORK NY
1200 PM EST MON DEC 05 2016

NOTE: "FAIR" INDICATES FEW OR NO CLOUDS BELOW 12,000 FEET WITH NO
SIGNIFICANT WEATHER AND/OR OBSTRUCTIONS TO VISIBILITY.

NYZ071-072-176-178-NJZ106-104-051800-
NEW YORK CITY METRO AREA

CITY           SKY/WX    TMP DP  RH WIND       PRES   REMARKS
Central Park   SUNNY     45  37  73 NW10G18   29.98F
Wall St Helipt MOSUNNY   48  40  73 W10G23    29.97F
Bronx Bot Gard   N/A     46  36  66 SW16      29.97R
LaGuardia APRT MOSUNNY   47  38  71 W14G25    29.95F
Kennedy INTL   MOSUNNY   48  39  71 W15G22    29.97F
Breezy Point     N/A     45 N/A N/A W14G21      N/A
Newark/Liberty MOSUNNY   46  39  76 W15       29.97F
Teterboro      MOSUNNY   46  37  71 W17       29.94F
$$

NYZ177-179-078>081-051800-
LONG ISLAND NEW YORK

CITY           SKY/WX    TMP DP  RH WIND       PRES   REMARKS
Jones Beach      N/A     45 N/A N/A W14G21      N/A
Matinecock PT    N/A     45 N/A N/A W18         N/A
Farmingdale    MOSUNNY   47  41  80 W12       29.95F
MacArthur/ISP  CLOUDY    47  40  76 W10       29.94F
Shirley        PTSUNNY   46  41  82 W8G16     29.95F
Westhampton    CLOUDY    46  41  82 W15       29.95F
Southampton      N/A     46  45  93 W5        29.91F
Bridgehampton  NOT AVBL
East Hampton   CLOUDY    44  41  89 W7        29.94F
Montauk          N/A     45  44  97 W8        29.95F
$$

NYZ052-065-067-051800-
HUDSON VALLEY

CITY           SKY/WX    TMP DP  RH WIND       PRES   REMARKS
White Plains   MOSUNNY   43  37  79 W9        29.93F
Newburgh       CLOUDY    37  37 100 W12       29.95F WCI  30
Montgomery     CLOUDY    39  35  86 S3        29.94S
Poughkeepsie   CLOUDY    37  34  89 SW5       29.95F WCI  33
Albany         CLOUDY    36  32  85 S12       29.91F WCI  28
$$

NJZ001-105-106-008-010-013-015-019>022-104-051800-
NEW JERSEY

CITY           SKY/WX    TMP DP  RH WIND       PRES   REMARKS
Newark/Liberty MOSUNNY   46  39  76 W15       29.97F
Teterboro      MOSUNNY   46  37  71 W17       29.94F
Caldwell       SUNNY     44  38  79 W9        29.96F
Somerville     PTSUNNY   44  38  79 W8G16     29.97F
Linden           N/A     45  38  76 W9        29.97F
Sussex         PTSUNNY   38  36  92 SW13      29.96S WCI  30
Andover          N/A     38  36  92 W8        29.97F WCI  32
Trenton        PTSUNNY   45  39  79 W10       29.98F
Millville      PTSUNNY   47  43  86 NW9       29.99F
Atlantic City  CLOUDY    47  41  80 NW12      30.00F
Wrightstown    CLOUDY    46  41  81 NW12      29.96F
Toms River     CLOUDY    46  42  86 W13       29.98F
Belmar         PTSUNNY   50  42  74 W13       29.98F
$$

PAZ047>061-062-071-051800-
EASTERN PENNSYLVANIA

CITY           SKY/WX    TMP DP  RH WIND       PRES   REMARKS
Philadelphia   MOSUNNY   46  40  79 W8        30.00F
Allentown      CLOUDY    42  37  82 W8        29.99F
Scranton       CLOUDY    40  36  86 SW13      29.94F WCI  32
$$

CTZ002-004>006-009-010-012-RIZ004-006-007-MAZ004-011-015-051800-
SOUTHERN NEW ENGLAND
 IN CT

CITY           SKY/WX    TMP DP  RH WIND       PRES   REMARKS
Bradley INTL   CLOUDY    32  29  88 SE3       29.94F FOG
Hartford       CLOUDY    34  33  96 S5        29.94F FOG     WCI  30
Danbury        CLOUDY    39  35  86 W12       29.94  WCI  32
Wtrbury/Oxford CLOUDY    37  34  87 W7        29.93F WCI  32
Bridgeport     CLOUDY    47  40  76 W10       29.95F
Meriden        CLOUDY    36  32  85 CALM      29.95F FOG
New Haven      PTSUNNY   40  39  97 CALM      29.95F
Chester        CLOUDY    37  36  93 CALM      29.93F FOG
Groton         CLOUDY    43  41  93 CALM      29.94F FOG
Wilimantic     CLOUDY    36  34  92 CALM      29.95F FOG

 IN RI

CITY           SKY/WX    TMP DP  RH WIND       PRES   REMARKS
Providence     LGT RAIN  35  33  92 W5        29.95F FOG     WCI  31
Block Island   LGT RAIN  46  45  96 W9        29.93F
Westerly       CLOUDY    41  37  86 N3        29.95F FOG
 IN MA

CITY           SKY/WX    TMP DP  RH WIND       PRES   REMARKS
Boston         LGT RAIN  37  36  96 SE8       29.96F WCI  31
Worcester      LGT SNOW  29  26  89 SE3       29.90F FOG
Westfield      CLOUDY    31  29  92 S3        29.93F
Provincetown   LGT RAIN  40  34  79 SE8       29.96F WCI  34
Nantucket      CLOUDY    44  37  76 S16       29.96F
$$

ANZ330-335-338-340-345-350-353-355-051800-
COASTAL MARINE OBSERVATIONS


STATION/POSITION TIME  SKY/WX   TEMP    WIND        PRES    VSBY  WAVE
                                AIR SEA DIR/SP/G                  HT/PER
                 (UTC)          (F)     (DEG/KT/KT) (MB)    (MI)  (FT/S)
NY HARB ENTRANCE 1650            46 53  280/ 14/ 16 1014.4          3/ 5
20 S FIRE ISLAND 1650            47 54  270/ 17/ 19 1014.2          3/ 4
GREAT SOUTH BAY  1630            44 44                N/A
23 SSW MONTAUK P 1650            47 54  270/ 21/ 25 1013.9          3/ 4
15 E BARNEGAT LI 1630               54                N/A           3/ 5
HUDSON CANYON    1550            53 58              1014.8          3/ 4
KINGS POINT      1636            44 47              1014.3
EXECUTION ROCKS  1645            47     260/ 10/ 14   N/A
CENTRAL LI SOUND NOT AVBL
EASTERN LI SOUND NOT AVBL
ROBBINS REEF     1648            44     270/ 17/ 20 1014.7
$$


>>>>>>>>>>>>>>>>>>>>>>>>>>>> KEY <<<<<<<<<<<<<<<<<<<<<<<<<<<
>                                                          <
>     SKY/WX - Sky Condition/Present Weather               <
>     TMP    - Temperature in Fahrenheit                   <
>     DP     - Dew Point in Fahrenheit                     <
>     RH     - Relative Humidity in Percent                <
>     WIND   - Direction (from) and Speed in MPH           <
>     PRES   - Mean Sea Level Pressure (inches of Hg)      <
>     WCI    - Wind Chill Index                            <
>     VSB    - VISIBILITY IN MILES                         <
>     HX     - HEAT INDEX                                  <
>     TC     - TEMPERATURE IN CELSIUS                      <
>     VRB    - VARIABLE WIND DIRECTION                     <
>                                                          <
>>>>>>>>>>>>>>>>>>>>>>>>>>>> KEY <<<<<<<<<<<<<<<<<<<<<<<<<<<




USA.gov is the U.S. government's official web portal to all federal, state and local government web resources and services.